Location: Bonnesvalyn
(49.1218°N, 3.3177°E)
Time: 23:07:52
(UTC+00:00)

Okean O Rocket - Pass Details

Date: 09 February 2023
Orbit: 620 x 643 km, 98.1° (Epoch: 01 April)

Event Time Altitude Azimuth Distance (km) Brightness Sun altitude
Rises 19:45:06 0° 194° (SSW) 2,918 5.1 -27.9°
Reaches altitude 10° 19:47:33 10° 207° (SSW) 2,019 4.3 -28.3°
Maximum altitude 19:51:19 27° 266° (W) 1,227 3.6 -28.9°
Drops below altitude 10° 19:55:07 10° 324° (NW) 2,045 4.8 -29.5°
Sets 19:57:38 0° 337° (NNW) 2,963 5.5 -29.9°
